QPF
0.00 0.00 0.00 0.00 0.00 0.00 0.00 0.00 0.00 0.00 0.00 0.00 0.00 0.00 0.00 0.00 0.00 0.00 0.00 0.00 0.00 0.00 0.00 0.03 0.04 0.06 0.04 0.02 0.00 0.01 0.02 0.03 0.02 0.00 0.00 0.01 0.00 0.00 0.03 0.06 0.05 0.10 0.21
0.00 0.00 0.00 0.00 0.00 0.00 0.00 0.00 0.00 0.00 0.00 0.00 0.00 0.00 0.00 0.00 0.00 0.00 0.00 0.00 0.00 0.00 0.00 0.01 0.02 0.03 0.06 0.05 0.03 0.00 0.01 0.01 0.01 0.01 0.00 0.01 0.02 0.00 0.00 0.03 0.07 0.08 0.14
0.00 0.00 0.00 0.00 0.00 0.00 0.00 0.00 0.00 0.00 0.00 0.00 0.00 0.00 0.00 0.00 0.00 0.00 0.00 0.00 0.00 0.00 0.00 0.00 0.01 0.01 0.01 0.04 0.04 0.02 0.00 0.00 0.00 0.00 0.00 0.00 0.02 0.00 0.00 0.02 0.05 0.06 0.09
0.00 0.00 0.00 0.00 0.00 0.00 0.00 0.00 0.00 0.00 0.00 0.00 0.00 0.00 0.00 0.00 0.00 0.00 0.00 0.00 0.00 0.00 0.00 0.00 0.00 0.00 0.00 0.01 0.04 0.07 0.04 0.01 0.00 0.00 0.00 0.01 0.00 0.00 0.00 0.00 0.02 0.05 0.07
0.00 0.00 0.00 0.00 0.00 0.00 0.00 0.00 0.00 0.00 0.00 0.00 0.00 0.00 0.00 0.00 0.00 0.00 0.00 0.00 0.00 0.00 0.00 0.00 0.00 0.00 0.00 0.01 0.02 0.08 0.12 0.12 0.06 0.04 0.02 0.02 0.01 0.00 0.00 0.00 0.00 0.02 0.03
0.00 0.00 0.00 0.00 0.00 0.00 0.00 0.00 0.00 0.00 0.00 0.00 0.00 0.00 0.00 0.00 0.00 0.00 0.00 0.00 0.00 0.00 0.00 0.00 0.00 0.00 0.00 0.00 0.03 0.04 0.12 0.13 0.10 0.08 0.07 0.02 0.00 0.00 0.00 0.01 0.01 0.00 0.00
0.00 0.00 0.00 0.00 0.00 0.00 0.00 0.00 0.00 0.00 0.00 0.00 0.00 0.00 0.00 0.00 0.00 0.00 0.00 0.00 0.00 0.00 0.00 0.00 0.00 0.00 0.00 0.00 0.01 0.04 0.11 0.18 0.13 0.11 0.15 0.05 0.00 0.00 0.00 0.02 0.01 0.02 0.02
0.00 0.00 0.00 0.00 0.00 0.00 0.00 0.00 0.00 0.00 0.00 0.00 0.00 0.00 0.00 0.00 0.00 0.00 0.00 0.00 0.00 0.00 0.00 0.00 0.00 0.00 0.00 0.00 0.00 0.01 0.05 0.14 0.15 0.17 0.28 0.15 0.04 0.00 0.00 0.00 0.01 0.03 0.03
0.00 0.00 0.00 0.00 0.00 0.00 0.00 0.00 0.00 0.00 0.00 0.00 0.00 0.01 0.01 0.00 0.00 0.00 0.00 0.00 0.00 0.00 0.00 0.00 0.00 0.00 0.00 0.00 0.00 0.00 0.00 0.06 0.14 0.18 0.32 0.30 0.17 0.04 0.01 0.00 0.00 0.01 0.06
0.00 0.00 0.00 0.00 0.00 0.00 0.00 0.00 0.00 0.00 0.00 0.00 0.00 0.00 0.01 0.01 0.01 0.00 0.00 0.00 0.00 0.00 0.00 0.00 0.00 0.00 0.00 0.00 0.00 0.00 0.00 0.01 0.04 0.10 0.17 0.43 0.37 0.15 0.02 0.00 0.00 0.00 0.02
0.00 0.00 0.00 0.00 0.00 0.00 0.00 0.00 0.00 0.00 0.00 0.00 0.00 0.00 0.00 0.00 0.00 0.01 0.00 0.00 0.00 0.00 0.00 0.00 0.00 0.00 0.00 0.00 0.00 0.00 0.00 0.00 0.00 0.03 0.07 0.17 0.29 0.41 0.21 0.02 0.00 0.00 0.00
0.00 0.00 0.00 0.00 0.00 0.00 0.00 0.00 0.00 0.00 0.00 0.00 0.00 0.00 0.01 0.01 0.01 0.01 0.01 0.00 0.00 0.00 0.00 0.00 0.00 0.00 0.00 0.00 0.00 0.00 0.00 0.00 0.00 0.00 0.05 0.20 0.20 0.34 0.57 0.15 0.03 0.04 0.03
0.00 0.00 0.00 0.00 0.00 0.00 0.00 0.00 0.00 0.00 0.00 0.00 0.00 0.00 0.00 0.00 0.01 0.01 0.01 0.00 0.00 0.00 0.00 0.00 0.00 0.00 0.00 0.00 0.00 0.00 0.00 0.00 0.00 0.00 0.00 0.03 0.10 0.18 0.39 0.82 0.48 0.17 0.14
0.00 0.00 0.00 0.00 0.00 0.00 0.00 0.00 0.00 0.00 0.00 0.00 0.00 0.00 0.00 0.00 0.00 0.01 0.01 0.02 0.01 0.00 0.00 0.00 0.00 0.00 0.00 0.00 0.00 0.00 0.00 0.00 0.00 0.00 0.00 0.00 0.00 0.01 0.10 0.56 0.98 0.81 0.31
0.00 0.00 0.00 0.00 0.00 0.00 0.00 0.00 0.00 0.00 0.00 0.00 0.00 0.00 0.00 0.00 0.00 0.00 0.01 0.01 0.03 0.02 0.00 0.00 0.00 0.00 0.00 0.00 0.01 0.00 0.00 0.01 0.00 0.00 0.00 0.00 0.00 0.01 0.01 0.08 0.36 0.69 0.72
0.00 0.00 0.00 0.00 0.00 0.00 0.00 0.00 0.00 0.00 0.00 0.00 0.00 0.00 0.00 0.00 0.00 0.00 0.00 0.00 0.01 0.02 0.01 0.00 0.00 0.00 0.00 0.00 0.01 0.01 0.01 0.01 0.00 0.00 0.00 0.00 0.01 0.03 0.01 0.02 0.03 0.12 0.38
0.00 0.00 0.00 0.00 0.00 0.00 0.00 0.00 0.00 0.00 0.00 0.00 0.00 0.00 0.00 0.00 0.00 0.00 0.00 0.00 0.00 0.01 0.01 0.00 0.00 0.00 0.00 0.00 0.01 0.01 0.01 0.01 0.01 0.01 0.01 0.01 0.01 0.02 0.03 0.02 0.02 0.00 0.02
0.00 0.00 0.00 0.00 0.00 0.00 0.00 0.00 0.00 0.00 0.00 0.00 0.00 0.00 0.00 0.00 0.00 0.00 0.00 0.00 0.00 0.00 0.01 0.01 0.00 0.00 0.00 0.01 0.01 0.02 0.02 0.04 0.02 0.02 0.02 0.02 0.03 0.03 0.03 0.04 0.04 0.01 0.01
0.00 0.00 0.00 0.00 0.00 0.00 0.00 0.00 0.00 0.00 0.00 0.00 0.00 0.00 0.00 0.00 0.00 0.00 0.00 0.00 0.00 0.00 0.00 0.01 0.00 0.00 0.00 0.01 0.01 0.02 0.03 0.05 0.05 0.06 0.04 0.04 0.05 0.06 0.05 0.06 0.05 0.02 0.01
0.00 0.00 0.00 0.00 0.00 0.00 0.00 0.00 0.00 0.00 0.00 0.00 0.00 0.00 0.00 0.00 0.00 0.00 0.00 0.00 0.00 0.00 0.00 0.00 0.00 0.00 0.00 0.01 0.02 0.04 0.06 0.09 0.09 0.05 0.04 0.05 0.05 0.07 0.07 0.05 0.08 0.11 0.04
0.00 0.00 0.00 0.00 0.00 0.00 0.00 0.00 0.00 0.00 0.00 0.00 0.00 0.00 0.00 0.00 0.00 0.00 0.00 0.01 0.00 0.00 0.00 0.00 0.00 0.00 0.01 0.03 0.04 0.08 0.10 0.11 0.12 0.12 0.10 0.03 0.02 0.05 0.05 0.05 0.06 0.07 0.12
0.00 0.00 0.00 0.00 0.00 0.00 0.00 0.00 0.00 0.00 0.00 0.00 0.00 0.00 0.00 0.00 0.00 0.00 0.00 0.00 0.01 0.01 0.00 0.00 0.00 0.00 0.01 0.03 0.04 0.10 0.19 0.13 0.13 0.18 0.23 0.14 0.04 0.03 0.05 0.04 0.05 0.05 0.04
0.00 0.00 0.00 0.00 0.00 0.00 0.00 0.00 0.00 0.00 0.00 0.00 0.00 0.00 0.00 0.00 0.00 0.00 0.00 0.00 0.00 0.00 0.01 0.01 0.01 0.02 0.03 0.06 0.09 0.07 0.13 0.26 0.22 0.18 0.21 0.31 0.28 0.17 0.09 0.08 0.08 0.04 0.03
0.00 0.00 0.00 0.00 0.00 0.00 0.00 0.00 0.00 0.00 0.00 0.00 0.00 0.00 0.00 0.00 0.00 0.00 0.00 0.00 0.00 0.00 0.00 0.01 0.01 0.02 0.03 0.05 0.08 0.14 0.14 0.18 0.28 0.22 0.19 0.20 0.19 0.28 0.35 0.26 0.16 0.10 0.08
0.00 0.00 0.00 0.00 0.00 0.00 0.00 0.00 0.00 0.00 0.00 0.00 0.00 0.00 0.00 0.00 0.00 0.00 0.00 0.00 0.00 0.00 0.00 0.00 0.00 0.00 0.00 0.01 0.03 0.05 0.09 0.10 0.11 0.14 0.13 0.16 0.16 0.16 0.12 0.16 0.20 0.17 0.13
0.00 0.00 0.00 0.00 0.00 0.00 0.00 0.00 0.00 0.00 0.00 0.00 0.00 0.00 0.00 0.00 0.00 0.00 0.00 0.00 0.00 0.00 0.00 0.00 0.00 0.00 0.00 0.00 0.00 0.02 0.03 0.04 0.07 0.07 0.06 0.08 0.08 0.09 0.11 0.06 0.02 0.02 0.03
MSLP
1021.75 1021.37 1021.03 1020.86 1020.75 1020.46 1019.99 1019.41 1018.89 1018.32 1017.70 1017.32 1016.91 1016.33 1015.73 1015.15 1014.66 1014.20 1013.50 1013.11 1013.06 1012.69 1012.50 1011.98 1011.55 1011.20 1010.86 1010.95 1011.14 1011.38 1011.77 1012.19 1012.55 1012.99 1013.50 1014.01 1014.37 1014.84 1015.42 1015.88 1016.42 1017.04 1017.42
1022.58 1022.06 1021.65 1021.33 1021.04 1020.76 1020.43 1019.97 1019.43 1018.66 1017.96 1017.38 1016.81 1016.37 1015.74 1014.99 1014.37 1013.91 1013.38 1012.68 1012.42 1012.27 1011.98 1011.74 1011.48 1010.98 1010.48 1010.28 1010.28 1010.55 1010.84 1011.24 1011.72 1012.16 1012.73 1013.32 1013.91 1014.22 1014.84 1015.37 1015.95 1016.60 1017.12
1023.30 1022.85 1022.25 1021.89 1021.58 1021.20 1020.65 1020.14 1019.50 1018.71 1017.90 1017.12 1016.56 1016.13 1015.36 1014.63 1013.93 1013.43 1012.94 1012.43 1011.80 1011.48 1011.35 1011.33 1011.08 1010.86 1010.21 1009.80 1009.68 1009.75 1010.05 1010.32 1010.78 1011.34 1011.78 1012.41 1013.08 1013.68 1014.14 1014.78 1015.46 1016.06 1016.55
1023.81 1023.19 1022.68 1022.48 1022.19 1021.58 1020.77 1020.36 1019.72 1018.86 1018.01 1017.32 1016.59 1015.73 1014.79 1013.88 1013.37 1013.06 1012.57 1012.14 1011.57 1011.13 1010.59 1010.48 1010.49 1010.36 1010.05 1009.48 1009.17 1009.08 1009.17 1009.50 1009.87 1010.31 1010.83 1011.37 1011.96 1012.68 1013.35 1013.96 1014.70 1015.41 1016.00
1024.25 1023.70 1023.33 1023.04 1022.63 1021.86 1021.30 1020.88 1020.17 1019.31 1018.47 1017.61 1016.67 1015.42 1014.36 1013.52 1012.89 1012.42 1012.12 1011.70 1011.36 1011.00 1010.48 1009.88 1009.78 1009.72 1009.56 1009.19 1008.77 1008.55 1008.47 1008.65 1008.90 1009.45 1009.91 1010.47 1011.03 1011.61 1012.44 1013.16 1013.90 1014.54 1015.31
1024.51 1024.15 1023.81 1023.60 1022.97 1022.28 1021.67 1021.26 1020.51 1019.67 1018.90 1018.11 1016.97 1015.29 1013.90 1013.06 1012.54 1012.17 1011.66 1011.30 1011.05 1010.61 1010.08 1009.60 1009.09 1008.54 1008.62 1008.63 1008.39 1008.09 1007.94 1007.82 1008.03 1008.44 1008.70 1009.50 1010.18 1010.86 1011.39 1012.20 1012.91 1013.62 1014.41
1024.81 1024.47 1024.06 1023.68 1023.36 1022.69 1022.27 1021.61 1020.83 1019.93 1018.89 1018.34 1017.02 1015.42 1013.25 1012.12 1012.23 1012.24 1011.55 1011.35 1010.99 1010.29 1009.76 1009.35 1008.84 1008.17 1007.77 1007.87 1007.72 1007.50 1007.31 1007.10 1007.01 1007.29 1007.70 1008.48 1008.99 1009.89 1010.51 1011.13 1011.89 1012.62 1013.47
1024.88 1024.56 1024.33 1024.00 1023.66 1023.16 1022.60 1021.94 1021.24 1020.42 1019.47 1018.86 1017.69 1016.24 1014.17 1012.38 1012.15 1012.07 1011.67 1011.11 1011.11 1010.59 1009.56 1009.17 1008.86 1008.51 1008.05 1007.35 1007.08 1006.92 1006.78 1006.72 1006.44 1006.48 1006.71 1007.13 1007.86 1008.65 1009.40 1010.11 1010.86 1011.56 1012.37
1025.28 1025.00 1024.59 1024.41 1024.05 1023.60 1022.99 1022.47 1021.76 1021.13 1020.39 1019.24 1018.47 1017.68 1016.63 1015.13 1014.34 1012.11 1011.74 1011.39 1011.24 1010.43 1009.90 1009.17 1008.59 1008.30 1007.87 1007.62 1007.26 1006.86 1006.50 1006.30 1006.23 1006.20 1006.09 1006.32 1007.00 1007.53 1008.35 1009.13 1009.77 1010.38 1011.13
1025.34 1025.35 1024.74 1024.51 1024.32 1023.96 1023.42 1022.81 1022.31 1021.95 1021.15 1020.04 1018.88 1018.57 1018.42 1017.80 1016.08 1013.81 1012.66 1012.13 1011.89 1011.03 1009.86 1009.17 1008.48 1007.95 1007.50 1007.19 1007.02 1006.83 1006.53 1006.32 1005.97 1005.81 1005.88 1005.61 1005.60 1006.36 1007.03 1007.93 1008.65 1009.29 1010.01
1025.67 1025.43 1025.36 1025.07 1024.55 1024.02 1023.65 1023.26 1022.57 1022.29 1021.74 1021.03 1020.08 1019.29 1018.56 1017.89 1017.13 1016.90 1014.12 1013.06 1012.58 1011.54 1010.28 1009.34 1008.70 1007.80 1007.25 1006.93 1006.64 1006.39 1006.10 1006.11 1005.72 1005.51 1005.32 1005.09 1004.93 1005.37 1004.69 1006.63 1007.62 1008.40 1009.26
1025.89 1025.86 1025.67 1025.22 1024.73 1024.27 1023.81 1023.16 1022.96 1022.71 1022.32 1021.72 1020.98 1020.32 1019.85 1019.14 1018.54 1018.01 1016.34 1015.03 1013.59 1011.71 1010.75 1009.25 1008.40 1007.73 1007.12 1006.61 1006.48 1006.37 1005.96 1005.63 1005.29 1005.06 1004.76 1004.31 1003.80 1004.33 1003.34 1005.82 1006.71 1007.38 1008.28
1026.02 1025.99 1025.76 1025.33 1024.94 1024.68 1024.10 1023.41 1023.12 1022.97 1022.64 1022.17 1021.52 1020.92 1020.44 1019.95 1019.63 1018.69 1017.52 1016.02 1014.53 1012.19 1010.40 1009.31 1008.40 1008.16 1007.67 1007.49 1006.97 1006.51 1005.74 1005.07 1004.63 1004.45 1004.21 1003.73 1003.34 1003.36 1004.28 1003.48 1005.40 1006.50 1007.49
1026.22 1026.18 1025.92 1025.66 1025.31 1024.87 1024.43 1023.87 1023.39 1023.16 1022.92 1022.44 1021.99 1021.42 1020.91 1020.41 1019.92 1019.33 1018.48 1017.19 1014.94 1012.63 1011.23 1010.21 1009.55 1009.16 1008.87 1007.93 1007.32 1006.42 1005.20 1005.52 1004.68 1003.93 1003.52 1003.42 1003.53 1003.64 1003.48 1004.32 1004.63 1005.83 1006.75
1026.38 1026.34 1026.07 1025.81 1025.57 1025.21 1024.84 1024.42 1023.78 1023.31 1023.19 1022.75 1022.39 1021.86 1021.46 1020.96 1020.28 1019.56 1018.88 1018.08 1017.04 1014.75 1012.65 1011.09 1011.22 1010.52 1009.94 1008.85 1007.98 1007.19 1006.13 1006.02 1005.28 1003.83 1003.08 1002.90 1003.09 1003.53 1003.79 1004.36 1004.40 1004.88 1005.81
1026.64 1026.40 1026.23 1026.12 1025.97 1025.54 1025.19 1024.78 1024.14 1023.73 1023.50 1023.14 1022.75 1022.33 1021.77 1021.37 1020.66 1019.90 1019.15 1018.29 1017.58 1016.75 1014.76 1012.79 1012.11 1011.45 1010.87 1009.70 1008.72 1007.70 1006.78 1006.56 1005.95 1004.50 1002.95 1002.50 1002.49 1002.62 1002.88 1003.31 1003.82 1004.32 1004.96
1026.86 1026.64 1026.60 1026.58 1026.47 1026.08 1025.76 1025.35 1024.72 1024.38 1024.03 1023.82 1023.44 1023.01 1022.43 1021.84 1021.03 1020.32 1019.50 1018.68 1017.83 1017.12 1015.83 1013.98 1012.77 1012.34 1011.50 1010.72 1009.54 1008.28 1007.52 1007.31 1006.96 1005.85 1004.70 1003.28 1002.95 1002.62 1002.67 1002.75 1003.05 1003.69 1004.12
1027.17 1027.04 1026.99 1027.02 1026.92 1026.75 1026.37 1026.03 1025.44 1025.05 1024.80 1024.51 1024.22 1023.64 1023.04 1022.28 1021.59 1020.84 1019.96 1019.16 1018.47 1017.56 1016.60 1015.01 1013.56 1012.97 1012.35 1011.59 1010.53 1009.15 1008.65 1008.06 1007.83 1007.14 1006.47 1005.33 1004.68 1004.46 1004.15 1003.85 1003.94 1004.21 1004.34
1027.65 1027.48 1027.37 1027.34 1027.19 1026.94 1026.76 1026.57 1026.10 1025.60 1025.45 1025.19 1024.88 1024.18 1023.52 1022.83 1022.09 1021.43 1020.98 1020.20 1019.18 1018.03 1017.38 1016.34 1014.95 1013.88 1013.19 1012.45 1011.16 1010.21 1009.74 1009.42 1009.01 1008.71 1007.78 1007.46 1006.69 1006.05 1005.90 1005.17 1004.75 1004.67 1004.90
1028.10 1028.06 1028.00 1027.77 1027.51 1027.19 1026.95 1026.78 1026.41 1026.11 1025.77 1025.57 1025.19 1024.62 1023.85 1023.32 1022.72 1022.24 1021.64 1020.85 1020.13 1019.01 1018.06 1017.13 1016.26 1015.07 1014.14 1013.35 1012.47 1011.61 1010.54 1010.32 1010.14 1009.95 1009.14 1008.84 1008.58 1007.55 1007.40 1006.45 1005.90 1005.77 1005.70
1028.46 1028.49 1028.24 1028.02 1027.74 1027.14 1026.96 1027.06 1026.86 1026.56 1026.31 1025.99 1025.66 1025.11 1024.46 1024.04 1023.79 1022.98 1022.53 1021.87 1021.02 1020.11 1018.99 1017.91 1017.15 1016.47 1015.51 1014.24 1013.67 1012.94 1011.99 1011.27 1011.29 1011.67 1010.43 1010.61 1010.03 1008.88 1009.02 1008.45 1007.58 1007.44 1006.92
1028.65 1028.66 1028.44 1028.19 1027.86 1027.31 1027.24 1027.16 1027.16 1026.87 1026.65 1026.36 1025.87 1025.45 1025.08 1024.53 1024.36 1023.96 1023.57 1023.15 1022.25 1021.36 1020.41 1019.38 1018.66 1017.92 1017.14 1016.51 1015.40 1014.17 1013.26 1012.43 1012.59 1012.38 1012.70 1011.91 1011.45 1010.51 1010.45 1010.30 1009.19 1009.17 1007.73
1028.49 1028.52 1028.52 1028.27 1027.85 1027.38 1027.40 1027.34 1027.26 1027.02 1026.82 1026.60 1026.18 1025.74 1025.28 1024.95 1024.65 1024.35 1023.91 1023.75 1023.32 1022.46 1021.83 1021.07 1020.28 1019.70 1018.61 1017.88 1016.79 1015.54 1014.64 1014.09 1014.49 1014.33 1014.22 1013.22 1012.66 1011.96 1012.44 1011.84 1010.16 1010.11 1009.17
1028.30 1028.43 1028.54 1028.35 1028.01 1027.81 1027.53 1027.50 1027.35 1026.96 1026.89 1026.71 1026.36 1025.85 1025.62 1025.27 1025.10 1024.52 1023.96 1023.69 1023.56 1023.25 1022.76 1022.07 1021.54 1021.12 1020.28 1019.18 1018.04 1017.22 1016.08 1014.95 1015.02 1015.15 1015.35 1014.82 1014.04 1013.84 1013.12 1012.15 1011.73 1011.09 1010.36
1028.28 1028.54 1028.69 1028.65 1028.39 1028.01 1027.55 1027.61 1027.09 1026.99 1027.14 1027.18 1026.97 1026.45 1026.09 1025.89 1025.80 1025.33 1024.66 1024.21 1024.12 1024.02 1023.53 1023.02 1022.44 1021.77 1021.22 1020.23 1019.13 1017.97 1016.86 1016.24 1016.03 1016.61 1016.73 1015.91 1015.11 1013.84 1013.25 1013.15 1012.30 1012.06 1012.67
1028.30 1028.57 1028.81 1028.93 1028.77 1028.28 1027.68 1027.68 1027.45 1027.31 1027.60 1027.48 1027.41 1027.17 1026.93 1026.49 1026.39 1025.96 1025.48 1025.17 1024.85 1024.68 1024.11 1023.40 1022.78 1022.20 1021.71 1021.23 1020.36 1019.87 1019.42 1018.26 1017.81 1017.45 1017.90 1017.21 1015.98 1014.71 1013.27 1013.79 1013.82 1013.56 1012.81
Thickness
5576 5577 5577 5576 5575 5575 5577 5580 5583 5586 5590 5592 5596 5600 5605 5610 5614 5618 5626 5632 5634 5639 5641 5647 5652 5657 5663 5665 5666 5666 5664 5662 5661 5659 5656 5654 5652 5651 5647 5644 5641 5637 5637
5557 5557 5558 5559 5559 5560 5561 5562 5565 5570 5574 5579 5583 5586 5591 5597 5602 5607 5612 5619 5625 5629 5633 5637 5641 5646 5654 5660 5664 5665 5664 5662 5660 5658 5655 5652 5650 5649 5646 5643 5639 5635 5632
5539 5540 5542 5542 5543 5544 5546 5547 5551 5555 5560 5565 5570 5571 5578 5583 5590 5595 5600 5607 5614 5620 5624 5627 5632 5635 5644 5652 5658 5661 5661 5662 5659 5657 5655 5653 5650 5647 5645 5641 5637 5632 5629
5524 5526 5526 5525 5526 5528 5532 5531 5534 5539 5545 5550 5554 5559 5564 5572 5577 5580 5586 5592 5599 5605 5613 5618 5621 5626 5632 5642 5650 5656 5658 5658 5657 5656 5654 5652 5652 5648 5645 5642 5636 5632 5628
5510 5510 5509 5508 5508 5511 5512 5512 5514 5520 5525 5531 5536 5544 5550 5557 5562 5565 5570 5576 5582 5588 5596 5606 5611 5616 5622 5630 5641 5648 5653 5655 5655 5654 5653 5650 5650 5649 5645 5641 5637 5633 5628
5497 5495 5493 5491 5493 5494 5495 5495 5497 5500 5506 5511 5517 5528 5536 5543 5545 5548 5554 5558 5565 5570 5580 5589 5598 5608 5614 5620 5628 5639 5646 5650 5651 5652 5647 5649 5647 5644 5644 5641 5638 5634 5629
5483 5481 5479 5478 5476 5477 5477 5478 5480 5484 5490 5493 5502 5511 5526 5534 5530 5530 5537 5540 5546 5554 5563 5572 5582 5594 5603 5609 5617 5628 5637 5644 5648 5651 5651 5647 5646 5642 5641 5641 5639 5635 5631
5469 5467 5464 5462 5461 5460 5461 5463 5465 5467 5470 5474 5483 5492 5506 5520 5519 5519 5522 5527 5528 5534 5547 5555 5564 5574 5584 5597 5607 5617 5627 5634 5640 5646 5648 5648 5645 5643 5640 5639 5638 5637 5633
5453 5451 5450 5447 5445 5444 5446 5446 5448 5450 5451 5458 5464 5469 5477 5486 5486 5510 5511 5514 5515 5523 5530 5540 5550 5559 5569 5578 5590 5602 5614 5623 5629 5635 5641 5643 5640 5640 5639 5637 5637 5638 5636
5440 5435 5434 5432 5428 5428 5430 5432 5432 5431 5435 5440 5450 5452 5451 5454 5470 5485 5494 5498 5500 5508 5519 5528 5538 5546 5556 5565 5575 5585 5598 5608 5617 5623 5629 5637 5632 5640 5639 5636 5638 5637 5636
5423 5420 5414 5413 5413 5414 5415 5416 5419 5418 5420 5425 5432 5438 5443 5447 5455 5452 5474 5480 5486 5495 5506 5516 5524 5535 5544 5552 5561 5571 5583 5594 5605 5611 5620 5630 5640 5636 5623 5637 5632 5633 5631
5407 5402 5398 5397 5397 5398 5400 5404 5405 5405 5406 5411 5417 5422 5425 5429 5433 5437 5450 5458 5467 5484 5493 5507 5517 5525 5532 5540 5547 5556 5568 5582 5594 5602 5611 5624 5622 5628 5631 5626 5627 5628 5626
5393 5387 5384 5383 5383 5382 5386 5390 5392 5393 5395 5399 5404 5408 5412 5417 5419 5426 5435 5445 5454 5472 5488 5500 5510 5512 5518 5524 5534 5543 5558 5573 5586 5594 5603 5615 5624 5629 5624 5621 5619 5620 5619
5381 5376 5374 5372 5371 5371 5373 5376 5378 5381 5384 5389 5392 5396 5400 5405 5409 5413 5419 5429 5446 5467 5475 5482 5492 5496 5500 5511 5519 5533 5550 5556 5572 5584 5593 5603 5608 5610 5616 5612 5615 5613 5614
5372 5368 5367 5364 5362 5361 5361 5363 5366 5370 5373 5378 5381 5385 5387 5391 5395 5401 5407 5413 5422 5438 5453 5468 5465 5476 5483 5494 5505 5516 5531 5538 5550 5569 5580 5590 5596 5597 5600 5599 5605 5607 5608
5363 5360 5356 5354 5351 5352 5351 5353 5358 5360 5363 5367 5370 5373 5378 5380 5385 5390 5395 5402 5407 5414 5428 5446 5450 5457 5465 5477 5487 5500 5511 5519 5532 5549 5566 5577 5586 5593 5597 5597 5598 5603 5604
5354 5350 5346 5343 5342 5342 5342 5344 5349 5350 5352 5354 5357 5360 5364 5369 5374 5379 5384 5389 5395 5399 5411 5427 5437 5439 5448 5457 5470 5482 5492 5498 5509 5524 5538 5555 5566 5576 5585 5590 5592 5594 5599
5345 5342 5338 5335 5334 5333 5333 5334 5338 5340 5340 5342 5343 5347 5351 5357 5361 5366 5372 5376 5381 5387 5393 5406 5422 5426 5430 5438 5449 5464 5471 5480 5488 5500 5510 5524 5535 5545 5556 5566 5572 5577 5582
5337 5334 5330 5328 5327 5326 5326 5327 5329 5330 5330 5331 5332 5336 5340 5344 5349 5353 5354 5358 5365 5374 5378 5385 5397 5407 5414 5420 5433 5444 5451 5456 5465 5473 5485 5494 5506 5517 5525 5539 5551 5560 5565
5328 5325 5322 5320 5319 5319 5320 5320 5321 5322 5323 5322 5324 5326 5330 5332 5335 5337 5341 5345 5347 5354 5361 5370 5376 5386 5395 5403 5411 5421 5434 5438 5443 5451 5462 5469 5477 5492 5499 5512 5526 5535 5542
5319 5316 5315 5314 5313 5315 5314 5313 5313 5313 5314 5314 5313 5315 5318 5319 5320 5323 5325 5327 5331 5336 5343 5351 5358 5363 5370 5384 5389 5398 5410 5419 5424 5423 5439 5443 5453 5470 5474 5484 5496 5505 5517
5311 5309 5308 5307 5307 5308 5306 5305 5304 5304 5304 5303 5305 5305 5306 5307 5306 5307 5308 5308 5312 5316 5322 5328 5332 5339 5345 5350 5363 5377 5387 5396 5400 5406 5406 5421 5428 5442 5449 5456 5470 5477 5497
5306 5303 5301 5300 5301 5302 5300 5298 5297 5296 5294 5293 5293 5294 5295 5294 5294 5294 5295 5294 5294 5298 5301 5305 5308 5312 5322 5328 5338 5353 5363 5371 5370 5375 5383 5398 5408 5416 5419 5429 5449 5455 5468
5301 5298 5295 5294 5294 5293 5293 5291 5289 5289 5287 5286 5284 5284 5283 5282 5280 5282 5284 5284 5281 5281 5283 5287 5290 5292 5298 5306 5316 5325 5337 5350 5353 5356 5359 5372 5384 5392 5403 5411 5421 5431 5444
5295 5291 5288 5286 5286 5285 5286 5284 5284 5282 5278 5274 5272 5271 5269 5267 5263 5264 5267 5269 5268 5266 5267 5270 5273 5278 5281 5287 5296 5308 5319 5328 5337 5333 5332 5347 5360 5373 5384 5389 5401 5410 5411
5288 5285 5281 5277 5276 5277 5279 5276 5274 5271 5266 5264 5260 5256 5253 5252 5249 5249 5251 5251 5251 5251 5253 5258 5261 5265 5268 5271 5278 5282 5289 5302 5310 5316 5315 5326 5338 5355 5376 5369 5372 5382 5394